SPOT 7

Last updated on Mon Sep 21 2026 00:02:45 GMT+0000 (Coordinated Universal Time)

1 40053U 14034A 26263.58449538 .00000263 00000+0 62758-4 0 9991 2 40053 98.0533 323.5726 0001171 81.0682 279.0652 14.61024141651068
UTC large
Height (km)
Speed (km/s)
/
Latitude / Longitude
Inclination (degrees)
Orbital Period (minutes)
Azimuth
Elevation
Range (km)
Doppler Factor

Next 0 passes for location: London (51.5072 / 0.1276)

No passes found over London.
SPOT 7